CW2969 Weather Reports


time (UTC)temp
C
wind
direction
speed
KPH
gust
KPH
rain 1hr
cm
rain 24hr
cm
rain mn
cm
humidity
%
barometer
mb
20260831061008 28 213 4.8 9.7 0.00 0.00 0.00 70 1014.7
20260831060508 28 243 4.8 8.0 0.00 0.00 0.00 70 1014.7
20260831060008 28 207 3.2 6.4 0.00 0.00 0.00 69 1014.7
20260831055508 28 127 1.6 8.0 0.00 0.00 0.00 69 1014.5
20260831055008 28 154 3.2 17.7 0.00 0.00 0.00 68 1014.5
20260831054508 29 142 4.8 17.7 0.00 0.00 0.00 68 1014.5
20260831053508 29 196 3.2 8.0 0.00 0.00 0.00 66 1014.4
20260831052008 30 127 3.2 4.8 0.00 0.00 0.00 65 1014.4
20260831051007 30 171 1.6 12.9 0.00 0.00 0.00 65 1014.2
20260831050037 30 196 1.6 8.0 0.00 0.00 0.00 64 1014.2
20260831045508 30 167 8.0 8.0 0.00 0.00 0.00 63 1014.0
20260831045007 30 155 0.0 4.8 0.00 0.00 0.00 62 1014.0
20260831044507 30 192 0.0 6.4 0.00 0.00 0.00 62 1014.1
20260831044007 30 181 4.8 8.0 0.00 0.00 0.00 62 1014.1
20260831042507 30 123 0.0 4.8 0.00 0.00 0.00 60 1013.9
20260831042007 30 103 4.8 8.0 0.00 0.00 0.00 60 1014.0
20260831041507 31 126 0.0 16.1 0.00 0.00 0.00 59 1014.2
20260831041007 31 157 1.6 16.1 0.00 0.00 0.00 59 1014.2
20260831040007 31 169 0.0 3.2 0.00 0.00 0.00 58 1014.2
20260831035507 31 119 3.2 11.3 0.00 0.00 0.00 57 1013.9
20260831034507 31 213 4.8 9.7 0.00 0.00 0.00 57 1013.8
20260831034006 31 265 3.2 12.9 0.00 0.00 0.00 56 1013.7
20260831033507 31 121 4.8 16.1 0.00 0.00 0.00 56 1013.7
20260831033006 31 163 9.7 16.1 0.00 0.00 0.00 56 1013.6
20260831032507 31 238 1.6 9.7 0.00 0.00 0.00 55 1013.6
20260831032006 32 121 8.0 9.7 0.00 0.00 0.00 55 1013.7
20260831031506 32 155 9.7 11.3 0.00 0.00 0.00 55 1013.6
20260831031006 32 136 3.2 11.3 0.00 0.00 0.00 54 1013.5
20260831030507 32 111 4.8 14.5 0.00 0.00 0.00 54 1013.4
20260831030006 32 132 6.4 14.5 0.00 0.00 0.00 54 1013.3
20260831025506 32 223 3.2 6.4 0.00 0.00 0.00 54 1013.1
20260831025006 32 107 4.8 19.3 0.00 0.00 0.00 53 1013.0
20260831024506 32 102 6.4 19.3 0.00 0.00 0.00 53 1012.9
20260831024006 32 84 4.8 6.4 0.00 0.00 0.00 53 1012.8
20260831023506 32 101 0.0 9.7 0.00 0.00 0.00 53 1012.7
20260831023006 32 119 8.0 16.1 0.00 0.00 0.00 52 1012.7
20260831022506 32 95 16.1 16.1 0.00 0.00 0.00 52 1012.5
20260831022006 33 174 4.8 16.1 0.00 0.00 0.00 52 1012.4
20260831021506 33 112 4.8 11.3 0.00 0.00 0.00 51 1012.3
20260831021006 33 126 11.3 12.9 0.00 0.00 0.00 51 1012.3
20260831020505 33 263 3.2 19.3 0.00 0.00 0.00 51 1012.3
20260831015506 33 144 3.2 9.7 0.00 0.00 0.00 49 1012.1
20260831015006 33 127 0.0 11.3 0.00 0.00 0.00 48 1012.0
20260831014505 33 123 4.8 24.1 0.00 0.00 0.00 47 1012.0
20260831013505 34 126 3.2 19.3 0.00 0.00 0.00 46 1011.8
20260831013005 34 128 6.4 24.1 0.00 0.00 0.00 45 1011.8
20260831012505 35 130 12.9 24.1 0.00 0.00 0.00 45 1011.7
20260831012005 35 169 6.4 16.1 0.00 0.00 0.00 42 1011.6
20260831011505 35 126 6.4 12.9 0.00 0.00 0.00 40 1011.4
20260831011005 35 149 1.6 4.8 0.00 0.00 0.00 40 1011.3
20260831010505 35 115 1.6 3.2 0.00 0.00 0.00 40 1011.3
20260831010005 35 96 3.2 9.7 0.00 0.00 0.00 40 1011.3
20260831005505 35 131 3.2 9.7 0.00 0.00 0.00 40 1011.2
20260831005005 35 136 3.2 9.7 0.00 0.00 0.00 40 1011.2
20260831004505 36 101 3.2 9.7 0.00 0.00 0.00 39 1011.2
20260831004005 36 133 3.2 8.0 0.00 0.00 0.00 39 1011.2
20260831003004 36 186 3.2 3.2 0.00 0.00 0.00 39 1011.2
20260831002005 36 159 1.6 6.4 0.00 0.00 0.00 39 1011.1
20260831001505 36 104 0.0 11.3 0.00 0.00 0.00 39 1011.1
20260831001005 36 133 6.4 11.3 0.00 0.00 0.00 39 1011.0
20260831000504 36 235 4.8 8.0 0.00 0.00 0.00 39 1011.0
20260831000034 36 128 1.6 8.0 0.00 0.00 0.00 39 1011.0
20260830235504 36 124 3.2 14.5 0.00 0.00 0.00 39 1011.1
20260830234504 36 243 0.0 8.0 0.00 0.00 0.00 38 1011.2
20260830232534 37 107 3.2 14.5 0.00 0.00 0.00 38 1011.2
20260830231534 37 91 3.2 17.7 0.00 0.00 0.00 38 1011.2
20260830231033 37 97 4.8 11.3 0.00 0.00 0.00 38 1011.2
20260830230533 37 92 3.2 14.5 0.00 0.00 0.00 37 1011.1
20260830230033 37 125 14.5 14.5 0.00 0.00 0.00 38 1011.1
20260830225533 37 121 3.2 9.7 0.00 0.00 0.00 38 1011.2
20260830225033 37 195 3.2 9.7 0.00 0.00 0.00 38 1011.2
20260830224533 37 291 1.6 14.5 0.00 0.00 0.00 38 1011.3
20260830224033 37 119 1.6 14.5 0.00 0.00 0.00 38 1011.3
20260830223033 37 107 1.6 14.5 0.00 0.00 0.00 38 1011.3
20260830222533 37 149 0.0 14.5 0.00 0.00 0.00 38 1011.3
20260830222033 37 121 3.2 6.4 0.00 0.00 0.00 39 1011.3
20260830221533 36 105 4.8 12.9 0.00 0.00 0.00 39 1011.4
20260830221033 36 132 12.9 12.9 0.00 0.00 0.00 39 1011.4
20260830220533 36 155 6.4 11.3 0.00 0.00 0.00 40 1011.4
20260830220032 36 142 1.6 11.3 0.00 0.00 0.00 40 1011.5
20260830215533 36 142 9.7 12.9 0.00 0.00 0.00 41 1011.5
20260830214532 36 171 1.6 9.7 0.00 0.00 0.00 41 1011.7
20260830214032 36 75 3.2 11.3 0.00 0.00 0.00 41 1011.7
20260830212532 36 102 4.8 14.5 0.00 0.00 0.00 42 1012.0
20260830212032 36 160 9.7 14.5 0.00 0.00 0.00 42 1012.0
20260830211532 36 147 4.8 12.9 0.00 0.00 0.00 42 1012.2
20260830211032 36 281 6.4 16.1 0.00 0.00 0.00 42 1012.2
20260830210532 36 250 4.8 16.1 0.00 0.00 0.00 42 1012.3
20260830210032 36 304 4.8 6.4 0.00 0.00 0.00 43 1012.4
20260830205032 36 178 3.2 11.3 0.00 0.00 0.00 44 1012.7
20260830204031 36 225 3.2 9.7 0.00 0.00 0.00 45 1012.7
20260830203532 36 210 1.6 8.0 0.00 0.00 0.00 45 1012.8
20260830203031 35 307 6.4 9.7 0.00 0.00 0.00 46 1013.0
20260830202031 36 132 4.8 6.4 0.00 0.00 0.00 47 1013.1
20260830201531 35 118 1.6 8.0 0.00 0.00 0.00 48 1013.1
20260830201031 35 169 8.0 8.0 0.00 0.00 0.00 47 1013.2
20260830200531 35 163 3.2 6.4 0.00 0.00 0.00 48 1013.2
20260830200031 35 186 4.8 12.9 0.00 0.00 0.00 48 1013.3
20260830195531 35 196 4.8 12.9 0.00 0.00 0.00 48 1013.5
20260830195031 35 119 3.2 11.3 0.00 0.00 0.00 49 1013.5
20260830194531 35 215 3.2 6.4 0.00 0.00 0.00 49 1013.6
20260830193531 35 126 3.2 16.1 0.00 0.00 0.00 50 1013.8
20260830193031 35 109 11.3 17.7 0.00 0.00 0.00 51 1013.9
20260830192530 35 136 17.7 19.3 0.00 0.00 0.00 51 1013.9
20260830192031 34 199 8.0 19.3 0.00 0.00 0.00 51 1014.0
20260830191531 34 186 3.2 12.9 0.00 0.00 0.00 51 1014.1
20260830191031 34 79 4.8 12.9 0.00 0.00 0.00 51 1014.2
20260830190530 34 121 12.9 14.5 0.00 0.00 0.00 52 1014.4
20260830190030 34 105 3.2 14.5 0.00 0.00 0.00 52 1014.4
20260830185530 34 207 6.4 11.3 0.00 0.00 0.00 53 1014.4
20260830185031 34 225 11.3 11.3 0.00 0.00 0.00 54 1014.4
20260830184531 34 112 9.7 11.3 0.00 0.00 0.00 53 1014.5
20260830184031 34 132 11.3 11.3 0.00 0.00 0.00 54 1014.6
20260830183530 34 225 3.2 11.3 0.00 0.00 0.00 54 1014.7
20260830183030 34 285 3.2 11.3 0.00 0.00 0.00 54 1014.8
20260830182530 33 120 1.6 6.4 0.00 0.00 0.00 55 1014.9
20260830181530 33 155 1.6 4.8 0.00 0.00 0.00 55 1015.0
20260830180530 33 238 3.2 9.7 0.00 0.00 0.00 55 1015.2
20260830180030 33 185 6.4 9.7 0.00 0.00 0.00 55 1015.4
20260830175530 33 130 6.4 8.0 0.00 0.00 0.00 55 1015.5
20260830175030 33 100 1.6 12.9 0.00 0.00 0.00 57 1015.6
20260830174030 33 119 12.9 12.9 0.00 0.00 0.00 57 1015.8
20260830172530 32 100 12.9 19.3 0.00 0.00 0.00 58 1015.9
20260830172030 32 117 1.6 12.9 0.00 0.00 0.00 59 1016.0
20260830171529 32 250 3.2 12.9 0.00 0.00 0.00 60 1016.1
20260830171029 32 96 11.3 14.5 0.00 0.00 0.00 60 1016.1
20260830170529 32 128 12.9 14.5 0.00 0.00 0.00 61 1016.2
20260830170030 32 318 6.4 19.3 0.00 0.00 0.00 61 1016.2
20260830162529 31 160 12.9 19.3 0.00 0.00 0.00 65 1016.5
20260830162029 31 254 8.0 19.3 0.00 0.00 0.00 65 1016.5
20260830161529 31 165 14.5 16.1 0.00 0.00 0.00 66 1016.5
20260830160029 31 77 1.6 6.4 0.00 0.00 0.00 68 1016.5
20260830155529 31 229 4.8 11.3 0.00 0.00 0.00 70 1016.5
20260830155029 30 149 3.2 11.3 0.00 0.00 0.00 70 1016.4
20260830154529 30 215 3.2 8.0 0.00 0.00 0.00 71 1016.4
20260830154028 30 92 3.2 9.7 0.00 0.00 0.00 72 1016.4
20260830153528 30 230 3.2 14.5 0.00 0.00 0.00 73 1016.4
20260830153028 30 190 6.4 17.7 0.00 0.00 0.00 73 1016.4
20260830152528 30 158 12.9 17.7 0.00 0.00 0.00 75 1016.3
20260830152029 29 165 9.7 9.7 0.00 0.00 0.00 75 1016.3
20260830151529 29 229 4.8 6.4 0.00 0.00 0.00 75 1016.2
20260830151028 29 263 3.2 12.9 0.00 0.00 0.00 76 1016.3
20260830150528 29 205 6.4 12.9 0.00 0.00 0.00 76 1016.3
20260830150028 28 132 4.8 8.0 0.00 0.00 0.00 77 1016.3
20260830145528 28 241 1.6 6.4 0.00 0.00 0.00 77 1016.3
20260830144528 28 151 3.2 9.7 0.00 0.00 0.00 78 1016.3
20260830144028 28 127 3.2 8.0 0.00 0.00 0.00 78 1016.3
20260830143528 28 96 1.6 8.0 0.00 0.00 0.00 78 1016.3
20260830143028 28 147 4.8 8.0 0.00 0.00 0.00 78 1016.3
20260830142527 28 254 0.0 6.4 0.00 0.00 0.00 78 1016.3
20260830142027 27 157 1.6 8.0 0.00 0.00 0.00 78 1016.3
20260830141527 27 203 8.0 8.0 0.00 0.00 0.00 78 1016.4
20260830141028 27 158 3.2 4.8 0.00 0.00 0.00 79 1016.5
20260830140027 27 302 3.2 4.8 0.00 0.00 0.00 79 1016.4
20260830135527 27 136 1.6 3.2 0.00 0.00 0.00 79 1016.3
20260830135027 27 115 0.0 6.4 0.00 0.00 0.00 79 1016.3
20260830134527 27 140 6.4 6.4 0.00 0.00 0.00 79 1016.3
20260830134027 27 143 3.2 6.4 0.00 0.00 0.00 79 1016.2
20260830133527 26 118 0.0 6.4 0.00 0.00 0.00 80 1016.2
20260830133027 26 132 6.4 6.4 0.00 0.00 0.00 80 1016.1
20260830132527 26 94 0.0 4.8 0.00 0.00 0.00 80 1016.1
20260830131527 26 113 0.0 0.0 0.00 0.00 0.00 80 1015.9
20260830131027 25 113 0.0 0.0 0.00 0.00 0.00 81 1015.8
20260830130527 25 113 0.0 0.0 0.00 0.00 0.00 81 1015.7
20260830130027 25 113 0.0 0.0 0.00 0.00 0.00 81 1015.7
20260830125526 25 113 0.0 0.0 0.00 0.00 0.00 81 1015.8
20260830125026 24 113 0.0 0.0 0.00 0.00 0.00 81 1015.7
20260830124526 24 113 0.0 0.0 0.00 0.00 0.00 81 1015.7
20260830123526 24 113 0.0 0.0 0.00 0.00 0.00 81 1015.6
20260830123026 24 113 0.0 0.0 0.00 0.00 0.00 81 1015.6
20260830122526 24 113 0.0 0.0 0.00 0.00 0.00 80 1015.5
20260830122026 24 113 0.0 0.0 0.00 0.00 0.00 81 1015.5
20260830121526 24 113 0.0 0.0 0.00 0.00 0.00 81 1015.4
20260830121026 24 113 0.0 0.0 0.00 0.00 0.00 80 1015.4
20260830120525 24 113 0.0 0.0 0.00 0.00 0.00 80 1015.4
20260830120025 24 113 0.0 0.0 0.00 0.00 0.00 80 1015.4
20260830115526 24 113 0.0 0.0 0.00 0.00 0.00 80 1015.4
20260830114526 24 113 0.0 0.0 0.00 0.00 0.00 80 1015.4
20260830114025 24 113 0.0 0.0 0.00 0.00 0.00 80 1015.3
20260830113526 24 113 0.0 0.0 0.00 0.00 0.00 80 1015.3
20260830113025 24 113 0.0 0.0 0.00 0.00 0.00 80 1015.2
20260830112525 24 113 0.0 0.0 0.00 0.00 0.00 80 1015.1
20260830112025 24 113 0.0 0.0 0.00 0.00 0.00 80 1015.1
20260830111525 25 113 0.0 0.0 0.00 0.00 0.00 79 1015.3
20260830111025 25 113 0.0 0.0 0.00 0.00 0.00 79 1015.3
20260830110025 25 113 0.0 0.0 0.00 0.00 0.00 79 1015.1
20260830105525 25 113 0.0 0.0 0.00 0.00 0.00 79 1015.1
20260830105025 25 113 0.0 1.6 0.00 0.00 0.00 78 1015.1
20260830104525 25 113 0.0 1.6 0.00 0.00 0.00 78 1015.0
20260830103525 25 113 0.0 1.6 0.00 0.00 0.00 78 1015.0
20260830103025 25 188 0.0 1.6 0.00 0.00 0.00 78 1015.0
20260830102524 25 178 0.0 4.8 0.00 0.00 0.00 78 1014.9
20260830101525 25 197 0.0 1.6 0.00 0.00 0.00 78 1014.9
20260830101024 25 239 0.0 4.8 0.00 0.00 0.00 78 1014.9
20260830100524 25 238 1.6 4.8 0.00 0.00 0.00 78 1015.0
20260830100024 25 278 3.2 4.8 0.00 0.00 0.00 77 1015.0
20260830095524 25 199 3.2 4.8 0.00 0.00 0.00 77 1014.9
20260830095024 25 207 0.0 4.8 0.00 0.00 0.00 77 1014.9
20260830094524 26 205 0.0 4.8 0.00 0.00 0.00 77 1014.8
20260830094024 26 210 0.0 4.8 0.00 0.00 0.00 77 1014.7
20260830093524 26 198 0.0 3.2 0.00 0.00 0.00 77 1014.8
20260830092524 26 207 1.6 3.2 0.00 0.00 0.00 76 1014.8
20260830092024 26 158 0.0 1.6 0.00 0.00 0.00 76 1014.7
20260830091524 26 198 0.0 1.6 0.00 0.00 0.00 76 1014.7
20260830091024 26 196 1.6 1.6 0.00 0.00 0.00 76 1014.7
20260830090524 26 172 0.0 3.2 0.00 0.00 0.00 75 1014.8
20260830090024 26 172 0.0 3.2 0.00 0.00 0.00 75 1014.9
20260830085524 26 185 0.0 3.2 0.00 0.00 0.00 75 1015.0
20260830085024 26 260 1.6 3.2 0.00 0.00 0.00 75 1014.9
20260830084524 26 136 0.0 3.2 0.00 0.00 0.00 75 1014.9
20260830084024 26 210 3.2 3.2 0.00 0.00 0.00 74 1014.9
20260830083024 26 229 0.0 4.8 0.00 0.00 0.00 74 1014.9
20260830082524 26 261 1.6 6.4 0.00 0.00 0.00 74 1014.8
20260830082023 26 238 1.6 8.0 0.00 0.00 0.00 74 1014.9
20260830081524 26 275 3.2 8.0 0.00 0.00 0.00 73 1014.9
20260830081024 27 271 0.0 1.6 0.00 0.00 0.00 73 1015.0
20260830080524 27 193 1.6 4.8 0.00 0.00 0.00 73 1015.1
20260830080023 27 147 1.6 6.4 0.00 0.00 0.00 73 1015.2
20260830075523 27 184 1.6 6.4 0.00 0.00 0.00 73 1015.2
20260830074023 27 288 6.4 8.0 0.00 0.00 0.00 72 1015.1
20260830073523 27 177 1.6 6.4 0.00 0.00 0.00 72 1015.2
20260830072523 27 220 0.0 12.9 0.00 0.00 0.00 71 1015.3
20260830072023 27 143 9.7 12.9 0.00 0.00 0.00 71 1015.3
20260830071523 27 155 0.0 11.3 0.00 0.00 0.00 70 1015.2
20260830071023 27 202 0.0 11.3 0.00 0.00 0.00 70 1015.3
20260830070522 27 200 3.2 9.7 0.00 0.00 0.00 70 1015.4
20260830070022 27 123 3.2 9.7 0.00 0.00 0.00 70 1015.4
20260830065523 27 269 4.8 9.7 0.00 0.00 0.00 69 1015.4
20260830065022 28 155 1.6 9.7 0.00 0.00 0.00 69 1015.5
20260830064522 28 208 3.2 9.7 0.00 0.00 0.00 69 1015.4
20260830064022 28 169 3.2 6.4 0.00 0.00 0.00 69 1015.4
20260830063522 28 171 1.6 8.0 0.00 0.00 0.00 68 1015.2
20260830062022 28 221 4.8 8.0 0.00 0.00 0.00 68 1015.3
20260830061522 28 167 6.4 8.0 0.00 0.00 0.00 68 1015.3